,

(GMT )
Juanda

Weather History for WARR - January, 2014

Change the Weather History Date:

Tuesday, January 28, 2014

  Actual Average Record
Temperature  
Mean Temperature 82 °F -  
Max Temperature 86 °F - - ()
Min Temperature 77 °F - - ()
Cooling Degree Days 16    
Growing Degree Days 32 (Base 50)    
Moisture  
Dew Point 73 °F    
Average Humidity 80    
Maximum Humidity 94    
Minimum Humidity 62    
Precipitation  
Precipitation 0.00 in - - ()
Sea Level Pressure  
Sea Level Pressure 29.80 in    
Wind  
Wind Speed 8 mph ()    
Max Wind Speed 20 mph    
Max Gust Speed -    
Visibility 5.1 miles    
Events Rain , Thunderstorm    
T = Trace of Precipitation, MM = Missing Value Source: Averaged Metar Reports

Daily Weather History Graph

Daily Weather History Graph

Search for Another Location

Airport or City:

Trip Planner

Search our weather history database for the weather conditions in past years. The results will help you decide how hot, cold, wet, or windy it might be!

Date:

Astronomy

Jan. 28, 2014 Rise Set
Actual Time 5:28 AM WIB 5:55 PM WIB
Civil Twilight 5:06 AM WIB 6:17 PM WIB
Nautical Twilight 4:40 AM WIB 6:42 PM WIB
Astronomical Twilight 4:14 AM WIB 7:08 PM WIB
Moon 2:26 AM WIB (1/28) 3:17 PM WIB (1/28)
Length of Visible Light 13h 10m
Length of Day
12h 26m
Waning Crescent, 11% of the Moon is Illuminated
Jan 28
Waning Crescent
Jan 31
New
Feb 7
First Quarter
Feb 15
Full
Feb 23
Last Quarter

Hourly Weather History & Observations

Time (WIB) Temp. Heat Index Dew Point Humidity Pressure Visibility Wind Dir Wind Speed Gust Speed Precip Events Conditions
12:00 AM 77.0 °F - 73.4 °F 89% 29.80 in 5.0 mi WSW 4.6 mph - N/A   Partly Cloudy
12:30 AM 77.0 °F - 73.4 °F 89% 29.80 in 5.0 mi SW 6.9 mph - N/A   Partly Cloudy
1:00 AM 77.0 °F - 73.4 °F 89% 29.80 in 2.5 mi SW 8.1 mph - N/A Rain , Thunderstorm Thunderstorms and Rain
1:30 AM 77.0 °F - 73.4 °F 89% 29.80 in 3.1 mi WSW 9.2 mph - N/A Rain , Thunderstorm Thunderstorms and Rain
2:00 AM 77.0 °F - 73.4 °F 89% 29.80 in 5.0 mi SW 4.6 mph - N/A Thunderstorm Thunderstorm
2:30 AM 77.0 °F - 73.4 °F 89% 29.80 in 3.7 mi WSW 3.5 mph - N/A   Partly Cloudy
3:00 AM 77.0 °F - 73.4 °F 89% 29.77 in 3.7 mi West 4.6 mph - N/A   Partly Cloudy
3:30 AM 77.0 °F - 73.4 °F 89% 29.77 in 4.3 mi WSW 5.8 mph - N/A   Partly Cloudy
4:00 AM 77.0 °F - 73.4 °F 89% 29.77 in 4.3 mi SW 5.8 mph - N/A   Partly Cloudy
4:30 AM 77.0 °F - 73.4 °F 89% - 4.3 mi SW 5.8 mph - N/A   Partly Cloudy
5:00 AM 77.0 °F - 73.4 °F 89% 29.80 in 4.3 mi WSW 4.6 mph - N/A   Partly Cloudy
5:30 AM 77.0 °F - 73.4 °F 89% 29.80 in 4.3 mi West 4.6 mph - N/A   Partly Cloudy
6:00 AM 77.0 °F - 73.4 °F 89% 29.80 in 3.7 mi West 4.6 mph - N/A   Partly Cloudy
6:30 AM 77.0 °F - 73.4 °F 89% 29.80 in 3.1 mi WSW 4.6 mph - N/A   Haze
7:00 AM 77.0 °F - 75.2 °F 94% 29.83 in 3.1 mi West 5.8 mph - N/A   Haze
7:30 AM 78.8 °F - 75.2 °F 89% 29.83 in 3.1 mi West 5.8 mph - N/A   Haze
8:00 AM 80.6 °F 86.2 °F 75.2 °F 84% 29.83 in 3.7 mi WSW 6.9 mph - N/A   Partly Cloudy
8:30 AM 80.6 °F 86.2 °F 75.2 °F 84% 29.86 in 3.7 mi WSW 6.9 mph - N/A   Partly Cloudy
9:00 AM 82.4 °F 88.2 °F 73.4 °F 74% 29.83 in 3.7 mi West 10.4 mph - N/A   Scattered Clouds
9:30 AM 84.2 °F 92.3 °F 75.2 °F 74% 29.83 in 4.3 mi WSW 10.4 mph - N/A   Scattered Clouds
10:00 AM 82.4 °F 88.2 °F 73.4 °F 74% 29.83 in 5.0 mi West 13.8 mph - N/A   Mostly Cloudy
10:30 AM 84.2 °F 92.3 °F 75.2 °F 74% 29.83 in 5.0 mi West 13.8 mph - N/A   Scattered Clouds
11:00 AM 84.2 °F 90.9 °F 73.4 °F 70% 29.83 in 5.0 mi West 16.1 mph - N/A   Partly Cloudy
11:30 AM 82.4 °F 88.2 °F 73.4 °F 74% 29.83 in 5.6 mi WNW 17.3 mph - N/A   Scattered Clouds
12:00 PM 84.2 °F 90.9 °F 73.4 °F 70% 29.80 in 6.2 mi WNW 13.8 mph - N/A   Partly Cloudy
12:30 PM 82.4 °F 88.2 °F 73.4 °F 74% 29.80 in 6.2 mi West 13.8 mph - N/A   Partly Cloudy
1:00 PM 82.4 °F 87.2 °F 71.6 °F 70% 29.77 in 6.2 mi WNW 17.3 mph - N/A   Partly Cloudy
1:30 PM 86.0 °F 93.4 °F 73.4 °F 66% 29.77 in 6.2 mi WNW 13.8 mph - N/A   Partly Cloudy
2:00 PM 84.2 °F 90.9 °F 73.4 °F 70% 29.74 in 6.2 mi WNW 12.7 mph - N/A   Partly Cloudy
2:30 PM 86.0 °F 93.4 °F 73.4 °F 66% 29.74 in 6.2 mi WNW 12.7 mph - N/A   Scattered Clouds
3:00 PM 86.0 °F 91.8 °F 71.6 °F 62% 29.71 in 6.2 mi West 15.0 mph - N/A   Mostly Cloudy
3:30 PM 84.2 °F 89.6 °F 71.6 °F 66% 29.71 in 6.2 mi West 11.5 mph - N/A   Mostly Cloudy
4:00 PM 86.0 °F 93.4 °F 73.4 °F 66% 29.71 in 6.2 mi WNW 12.7 mph - N/A   Scattered Clouds
4:30 PM 84.2 °F 89.6 °F 71.6 °F 66% 29.74 in 6.2 mi WNW 19.6 mph - N/A   Partly Cloudy
5:00 PM 82.4 °F 87.2 °F 71.6 °F 70% 29.74 in 6.2 mi WNW 13.8 mph - N/A   Scattered Clouds
5:30 PM 82.4 °F 87.2 °F 71.6 °F 70% 29.77 in 6.2 mi WNW 12.7 mph - N/A   Scattered Clouds
6:00 PM 80.6 °F 84.6 °F 71.6 °F 74% 29.77 in 6.2 mi West 12.7 mph - N/A   Partly Cloudy
6:30 PM 78.8 °F - 71.6 °F 78% 29.80 in 6.2 mi West 12.7 mph - N/A   Partly Cloudy
7:00 PM 77.0 °F - 69.8 °F 78% 29.80 in 6.2 mi West 12.7 mph - N/A   Partly Cloudy
7:30 PM 77.0 °F - 71.6 °F 83% 29.80 in 6.2 mi West 10.4 mph - N/A   Partly Cloudy
8:00 PM 77.0 °F - 71.6 °F 83% 29.83 in 6.2 mi West 9.2 mph - N/A   Mostly Cloudy
8:30 PM 77.0 °F - 71.6 °F 83% 29.83 in 6.2 mi West 5.8 mph - N/A   Mostly Cloudy
9:00 PM 77.0 °F - 71.6 °F 83% 29.83 in 6.2 mi West 8.1 mph - N/A   Mostly Cloudy
9:30 PM 77.0 °F - 71.6 °F 83% 29.86 in 6.2 mi WSW 6.9 mph - N/A   Mostly Cloudy
10:00 PM 77.0 °F - 71.6 °F 83% 29.86 in 6.2 mi West 8.1 mph - N/A   Partly Cloudy
11:30 PM 77.0 °F - 71.6 °F 83% 29.83 in 4.3 mi West 8.1 mph - N/A   Partly Cloudy